TimeCDT,TemperatureF,Dew PointF,Humidity,Sea Level PressureIn,VisibilityMPH,Wind Direction,Wind SpeedMPH,Gust SpeedMPH,PrecipitationIn,Events,Conditions,WindDirDegrees,DateUTC
12:15 AM,71.6,59.0,64,29.83,10.0,WNW,4.6,-,N/A,,Clear,290,2013-07-20 05:15:00
12:35 AM,69.8,59.0,68,29.83,10.0,NW,4.6,-,N/A,,Clear,310,2013-07-20 05:35:00
12:55 AM,69.8,59.0,68,29.83,10.0,NW,5.8,-,N/A,,Clear,310,2013-07-20 05:55:00
1:15 AM,68.0,59.0,73,29.83,10.0,NW,6.9,-,N/A,,Clear,310,2013-07-20 06:15:00
1:35 AM,68.0,59.0,73,29.83,10.0,NW,5.8,-,N/A,,Clear,320,2013-07-20 06:35:00
1:55 AM,68.0,59.0,73,29.83,10.0,NW,5.8,-,N/A,,Clear,320,2013-07-20 06:55:00
2:15 AM,68.0,59.0,73,29.83,10.0,NW,4.6,-,N/A,,Clear,310,2013-07-20 07:15:00
2:35 AM,68.0,59.0,73,29.83,10.0,NW,4.6,-,N/A,,Clear,310,2013-07-20 07:35:00
2:55 AM,68.0,59.0,73,29.83,10.0,NW,4.6,-,N/A,,Clear,310,2013-07-20 07:55:00
3:15 AM,66.2,59.0,78,29.83,10.0,NW,4.6,-,N/A,,Clear,310,2013-07-20 08:15:00
3:35 AM,66.2,57.2,73,29.84,10.0,WNW,3.5,-,N/A,,Clear,300,2013-07-20 08:35:00
3:55 AM,66.2,57.2,73,29.84,10.0,WNW,3.5,-,N/A,,Clear,300,2013-07-20 08:55:00
4:15 AM,64.4,57.2,77,29.84,10.0,NW,3.5,-,N/A,,Clear,310,2013-07-20 09:15:00
4:35 AM,64.4,55.4,73,29.85,10.0,Calm,Calm,-,N/A,,Clear,0,2013-07-20 09:35:00
4:55 AM,64.4,55.4,73,29.85,10.0,Calm,Calm,-,N/A,,Clear,0,2013-07-20 09:55:00
5:15 AM,64.4,55.4,73,29.85,10.0,Calm,Calm,-,N/A,,Clear,0,2013-07-20 10:15:00
5:35 AM,64.4,55.4,73,29.85,10.0,Calm,Calm,-,N/A,,Clear,0,2013-07-20 10:35:00
5:55 AM,62.6,57.2,82,29.86,10.0,Calm,Calm,-,N/A,,Clear,0,2013-07-20 10:55:00
6:15 AM,62.6,57.2,82,29.87,10.0,Calm,Calm,-,N/A,,Clear,0,2013-07-20 11:15:00
6:35 AM,64.4,57.2,77,29.87,10.0,Calm,Calm,-,N/A,,Clear,0,2013-07-20 11:35:00
6:55 AM,66.2,59.0,78,29.87,10.0,Calm,Calm,-,N/A,,Clear,0,2013-07-20 11:55:00
7:15 AM,68.0,57.2,68,29.88,10.0,WNW,4.6,-,N/A,,Clear,290,2013-07-20 12:15:00
7:35 AM,69.8,57.2,64,29.88,10.0,West,5.8,-,N/A,,Clear,270,2013-07-20 12:35:00
7:55 AM,71.6,55.4,57,29.88,10.0,West,4.6,-,N/A,,Clear,280,2013-07-20 12:55:00
8:15 AM,71.6,57.2,60,29.88,10.0,NW,4.6,-,N/A,,Clear,320,2013-07-20 13:15:00
8:35 AM,73.4,59.0,61,29.89,10.0,NNW,4.6,-,N/A,,Clear,330,2013-07-20 13:35:00
8:55 AM,73.4,57.2,57,29.89,10.0,NW,5.8,-,N/A,,Clear,310,2013-07-20 13:55:00
9:15 AM,75.2,57.2,53,29.89,10.0,NW,6.9,-,N/A,,Clear,310,2013-07-20 14:15:00
9:35 AM,75.2,59.0,57,29.90,10.0,NW,5.8,-,N/A,,Clear,320,2013-07-20 14:35:00
9:55 AM,77.0,57.2,50,29.90,10.0,WNW,4.6,-,N/A,,Clear,300,2013-07-20 14:55:00
10:15 AM,78.8,59.0,51,29.91,10.0,West,6.9,-,N/A,,Clear,260,2013-07-20 15:15:00
10:35 AM,78.8,57.2,47,29.91,10.0,West,5.8,-,N/A,,Clear,280,2013-07-20 15:35:00
10:55 AM,78.8,57.2,47,29.91,10.0,NNW,8.1,-,N/A,,Scattered Clouds,330,2013-07-20 15:55:00
11:15 AM,77.0,59.0,54,29.92,10.0,NNW,4.6,-,N/A,,Overcast,330,2013-07-20 16:15:00
11:35 AM,77.0,57.2,50,29.92,10.0,WNW,5.8,-,N/A,,Mostly Cloudy,300,2013-07-20 16:35:00
11:55 AM,78.8,59.0,51,29.92,10.0,NW,6.9,-,N/A,,Scattered Clouds,320,2013-07-20 16:55:00
12:15 PM,78.8,59.0,51,29.91,10.0,North,6.9,-,N/A,,Scattered Clouds,350,2013-07-20 17:15:00
12:35 PM,73.4,59.0,61,29.92,10.0,East,10.4,-,N/A,,Mostly Cloudy,80,2013-07-20 17:35:00
12:55 PM,73.4,59.0,61,29.92,10.0,East,11.5,-,N/A,,Mostly Cloudy,80,2013-07-20 17:55:00
1:15 PM,69.8,59.0,68,29.93,10.0,East,8.1,-,N/A,,Overcast,80,2013-07-20 18:15:00
1:35 PM,71.6,59.0,64,29.93,10.0,East,6.9,-,N/A,,Overcast,90,2013-07-20 18:35:00
1:55 PM,75.2,60.8,61,29.93,10.0,East,5.8,-,N/A,,Overcast,90,2013-07-20 18:55:00
2:15 PM,73.4,59.0,61,29.93,10.0,ENE,6.9,-,N/A,,Mostly Cloudy,60,2013-07-20 19:15:00
2:35 PM,75.2,59.0,57,29.92,10.0,East,8.1,16.1,N/A,,Scattered Clouds,90,2013-07-20 19:35:00
2:55 PM,77.0,59.0,54,29.92,10.0,ENE,8.1,-,N/A,,Clear,60,2013-07-20 19:55:00
3:15 PM,77.0,59.0,54,29.91,10.0,ENE,9.2,-,N/A,,Clear,60,2013-07-20 20:15:00
3:35 PM,77.0,59.0,54,29.91,10.0,East,10.4,-,N/A,,Clear,100,2013-07-20 20:35:00
3:55 PM,75.2,57.2,53,29.92,10.0,East,10.4,16.1,N/A,,Clear,80,2013-07-20 20:55:00
4:15 PM,73.4,55.4,53,29.92,10.0,East,11.5,16.1,N/A,,Clear,80,2013-07-20 21:15:00
4:35 PM,71.6,55.4,57,29.93,10.0,East,10.4,-,N/A,,Clear,80,2013-07-20 21:35:00
4:55 PM,71.6,55.4,57,29.93,10.0,ENE,12.7,17.3,N/A,,Clear,70,2013-07-20 21:55:00
5:15 PM,71.6,53.6,53,29.92,10.0,ENE,12.7,19.6,N/A,,Clear,70,2013-07-20 22:15:00
5:35 PM,69.8,53.6,56,29.92,10.0,East,8.1,-,N/A,,Clear,80,2013-07-20 22:35:00
5:55 PM,69.8,53.6,56,29.92,10.0,East,10.4,-,N/A,,Clear,80,2013-07-20 22:55:00
6:15 PM,69.8,51.8,53,29.93,10.0,ENE,10.4,-,N/A,,Clear,60,2013-07-20 23:15:00
6:35 PM,69.8,51.8,53,29.93,10.0,ENE,10.4,-,N/A,,Clear,70,2013-07-20 23:35:00
6:55 PM,68.0,51.8,56,29.95,10.0,East,6.9,-,N/A,,Clear,90,2013-07-20 23:55:00
7:15 PM,68.0,51.8,56,29.95,10.0,ENE,9.2,-,N/A,,Clear,70,2013-07-21 00:15:00
7:35 PM,64.4,50.0,59,29.96,10.0,ENE,11.5,-,N/A,,Scattered Clouds,60,2013-07-21 00:35:00
7:55 PM,64.4,51.8,64,29.96,10.0,ENE,6.9,-,N/A,,Scattered Clouds,70,2013-07-21 00:55:00
8:15 PM,62.6,51.8,68,29.95,10.0,ENE,8.1,-,N/A,,Scattered Clouds,60,2013-07-21 01:15:00
8:35 PM,62.6,51.8,68,29.97,10.0,East,3.5,-,N/A,,Clear,100,2013-07-21 01:35:00
8:55 PM,62.6,51.8,68,29.97,10.0,ENE,5.8,-,N/A,,Clear,60,2013-07-21 01:55:00
9:15 PM,62.6,51.8,68,29.98,10.0,ENE,4.6,-,N/A,,Clear,60,2013-07-21 02:15:00
9:35 PM,60.8,51.8,72,29.99,10.0,Calm,Calm,-,N/A,,Clear,0,2013-07-21 02:35:00
9:55 PM,60.8,51.8,72,29.99,10.0,Calm,Calm,-,N/A,,Clear,0,2013-07-21 02:55:00
10:35 PM,59.0,51.8,77,30.00,10.0,Calm,Calm,-,N/A,,Scattered Clouds,0,2013-07-21 03:35:00
10:55 PM,60.8,53.6,77,29.99,10.0,Calm,Calm,-,N/A,,Mostly Cloudy,0,2013-07-21 03:55:00
11:15 PM,60.8,51.8,72,29.99,10.0,Calm,Calm,-,N/A,,Overcast,0,2013-07-21 04:15:00
11:35 PM,60.8,51.8,72,29.99,10.0,NE,3.5,-,N/A,,Overcast,40,2013-07-21 04:35:00
11:55 PM,60.8,53.6,77,29.99,10.0,NNE,3.5,-,N/A,,Scattered Clouds,30,2013-07-21 04:55:00